User: anonymous   Login
Location: Dogstar Observatory
(35.3981°N, 83.1078°W)
Time: 03:20:25
(UTC-05:00)
Language:

ISS - Orbit

View from above orbital plane
View from above orbital plane
View from above satellite
View from above satellite

Ground track
Ground track

The orbit data is extracted from the following two-line orbital elements,

1 25544U 98067A   22029.18630985  .00021885  00000-0  39432-3 0  9993
2 25544  51.6444 304.9537 0006897  69.4966  90.3013 15.49695177323623
Epoch (UTC): 29 January 2022 04:28:17
Eccentricity: 0.0006897
inclination: 51.6444°
perigee height: 413 km
apogee height: 422 km
right ascension of ascending node: 304.9537°
argument of perigee: 69.4966°
revolutions per day: 15.49695177
mean anomaly at epoch: 90.3013°
orbit number at epoch: 32362

The dashed part of the orbit path shows where the satellite is in the earth's shadow,  

DLR